Station LPNM4 - 9075065 - Alpena, MI Image indicating link to RSS feed of recent meteorological observations for station LPNM4


Conditions at LPNM4 as of
(4:00 am EDT)
0800 GMT on 07/13/2024:
     

Click on the graph icon in the table below to see a time series plot of the last five days of that observation.

5-day plot - Wind Direction Wind Direction (WDIR): W ( 280 deg true )
5-day plot - Wind Speed Wind Speed (WSPD): 1.9 kts
5-day plot - Wind Gust Wind Gust (GST): 2.9 kts
5-day plot - Air Temperature Air Temperature (ATMP): 68.5 °F
5-day plot - Water Temperature Water Temperature (WTMP): 62.4 °F
5-day plot - Dew Point Dew Point (DEWP): 64.2 °F
5-day plot - Wind Speed at 10 Meters Wind Speed at 10 meters (WSPD10M): 1.9 kts
5-day plot - Wind Speed at 20 Meters Wind Speed at 20 meters (WSPD20M): 1.9 kts
5-day plot -  Wind Speed, Wind Gust and Atmospheric Pressure Combined plot of Wind Speed, Gust, and Air Pressure
NOS Water Level Observation Network Water Level
Previous observations
TIME
(EDT)
5-day plot - Wind Direction
WDIR
 
5-day plot - Wind Speed
WSPD
kts
5-day plot - Wind Gust
GST
kts
5-day plot - Wave Height
WVHT
ft
5-day plot - Dominant Wave Period
DPD
sec
5-day plot - Average Wave Period
APD
sec
5-day plot - Mean Wave Direction
MWD
 
5-day plot - Atmospheric Pressure
PRES
in
5-day plot - Pressure Tendency
PTDY
in
5-day plot - Air Temperature
ATMP
°F
5-day plot - Water Temperature
WTMP
°F
5-day plot - Dew Point
DEWP
°F
5-day plot - Salinity
SAL
psu
5-day plot - Visibility
VIS
nmi
5-day plot - Tide (above MLLW)
TIDE
ft
2024-07-13 03:54 amWNW 1.0 1.9------ 68.5 62.4 64.2---
2024-07-13 03:48 am SW 1.9 2.9----30.08- 68.7 62.4 64.4---
2024-07-13 03:42 amSSW 1.9 4.1----30.09- 68.5 62.4 64.6---
2024-07-13 03:36 amSSE 1.9 2.9----30.09- 68.0 62.2 64.0---
2024-07-13 03:30 am E 1.0 1.9----30.09- 68.0 62.2 63.7---
2024-07-13 03:24 am- 0.0 1.9----30.09- 68.5 62.4 64.0---
2024-07-13 03:18 amNNW 1.0 5.1----30.09- 68.9 62.2 64.2---
2024-07-13 03:12 am NW 1.9 4.1----30.09- 68.9 62.4 64.2---
2024-07-13 03:06 amWNW 1.9 4.1----30.09- 68.9 62.4 64.2---
2024-07-13 03:00 amWNW 2.9 2.9----30.09-0.01 68.9 62.4 64.2---
2024-07-13 02:54 amWNW 1.9 2.9----30.09- 68.7 62.4 64.2---
2024-07-13 02:48 am W 1.0 2.9----30.09- 68.5 62.4 64.0---
2024-07-13 02:42 am W 1.0 2.9----30.09- 68.5 62.4 64.0---
2024-07-13 02:36 am W 1.9 4.1----30.10- 68.4 62.4 63.9---
2024-07-13 02:30 am W 1.9 4.1----30.10- 68.4 62.2 63.7---
2024-07-13 02:24 am W 1.9 1.9----30.10- 68.5 62.4 63.7---
2024-07-13 02:18 am- 0.0 1.9----30.10- 68.7 62.4 63.9---
2024-07-13 02:12 am W 1.0 1.9----30.11- 68.7 62.4 63.7---
2024-07-13 02:06 am- 0.0 1.9----30.11- 68.7 62.4 63.5---
2024-07-13 02:00 am- 0.0 1.9----30.11+0.01 68.9 62.4 63.5---
2024-07-13 01:54 am- 0.0 1.9----30.11- 68.9 62.4 63.3---
2024-07-13 01:48 amWSW 1.0 2.9----30.11- 69.1 62.4 63.1---
2024-07-13 01:42 amWNW 1.0 2.9----30.11- 69.3 62.4 63.5---
2024-07-13 01:36 am W 1.9 2.9----30.11- 69.3 62.4 63.5---
2024-07-13 01:30 am SW 1.0 2.9----30.11- 69.4 62.4 63.7---
2024-07-13 01:24 amWSW 1.0 4.1----30.11- 69.4 62.4 63.9---
2024-07-13 01:18 am- 0.0 1.9----30.11- 69.4 62.4 64.0---
2024-07-13 01:12 amWNW 1.0 2.9----30.11- 69.6 62.4 64.0---
2024-07-13 01:06 am NW 1.9 4.1----30.11- 69.8 62.4 64.2---
2024-07-13 01:00 am NW 1.9 4.1----30.11+0.04 69.8 62.4 64.0---
2024-07-13 12:54 am NW 4.1 5.1----30.11- 70.0 62.4 64.0---
2024-07-13 12:48 amWNW 1.0 2.9----30.11- 70.2 62.4 63.7---
2024-07-13 12:42 amWNW 1.9 2.9----30.11- 70.5 62.4 63.7---
2024-07-13 12:36 am NW 1.9 4.1----30.11- 70.7 62.4 63.5---
2024-07-13 12:30 amWNW 1.9 2.9----30.11- 70.7 62.4 63.3---
2024-07-13 12:24 amWNW 1.9 2.9----30.11- 70.7 62.4 63.3---
2024-07-13 12:18 amWSW 1.9 1.9----30.11- 70.7 62.4 63.1---
2024-07-13 12:12 amWSW 1.0 1.9----30.10- 70.7 62.4 63.3---
2024-07-13 12:06 am- 0.0 1.9----30.10- 70.9 62.4 63.5---
2024-07-13 12:00 am W 1.0 2.9----30.10+0.03 71.2 62.4 63.7---
2024-07-12 11:54 pmWNW 1.9 2.9----30.10- 71.6 62.6 64.2---
2024-07-12 11:48 pm SW 1.9 2.9----30.10- 71.6 62.4 63.9---
2024-07-12 11:42 pmSSW 2.9 4.1----30.09- 71.8 62.6 64.0---
2024-07-12 11:36 pm W 1.0 4.1----30.09- 72.0 62.4 64.2---
2024-07-12 11:30 pmSSW 2.9 4.1----30.09- 72.1 62.4 64.0---
2024-07-12 11:24 pm SW 1.9 2.9----30.10- 72.3 62.6 64.4---
2024-07-12 11:18 pmSSW 2.9 4.1----30.09- 72.3 62.6 64.4---
2024-07-12 11:12 pmSSW 1.9 4.1----30.09- 72.1 62.4 65.1---
2024-07-12 11:06 pm S 2.9 4.1----30.09- 72.7 62.4 66.4---
2024-07-12 11:00 pm S 4.1 4.1----30.09+0.03 72.5 62.4 66.7---
2024-07-12 10:54 pmSSW 2.9 4.1----30.10- 72.9 62.4 66.7---
2024-07-12 10:48 pm S 4.1 5.1----30.10- 73.0 62.4 66.0---
2024-07-12 10:42 pm S 4.1 5.1----30.09- 73.0 62.4 66.4---
2024-07-12 10:36 pm S 2.9 5.1----30.09- 73.4 62.6 66.4---
2024-07-12 10:30 pmSSW 2.9 4.1----30.09- 73.2 62.4 66.0---
2024-07-12 10:24 pmSSW 4.1 5.1----30.09- 73.2 62.4 66.2---
2024-07-12 10:18 pm S 2.9 5.1----30.09- 73.2 62.4 66.9---
2024-07-12 10:12 pm S 4.1 5.1----30.08- 73.4 62.4 67.3---
2024-07-12 10:06 pm S 2.9 5.1----30.09- 73.4 62.4 67.5---
2024-07-12 10:00 pmSSW 4.1 6.0----30.08+0.02 73.4 62.4 67.6---
2024-07-12 09:54 pm S 5.1 7.0----30.08- 73.4 62.4 67.8---
2024-07-12 09:48 pmSSW 5.1 6.0----30.08- 73.2 62.4 68.4---
2024-07-12 09:42 pm S 5.1 8.0----30.07- 73.6 62.4 68.4---
2024-07-12 09:36 pm S 5.1 7.0----30.07- 73.8 62.4 67.8---
2024-07-12 09:30 pm S 5.1 7.0----30.07- 73.4 62.4 68.0---
2024-07-12 09:24 pm S 5.1 7.0----30.07- 73.8 62.4 68.0---
2024-07-12 09:18 pm S 5.1 7.0----30.07- 73.8 62.4 68.0---
2024-07-12 09:12 pm S 5.1 7.0----30.07- 73.6 62.4 67.6---
2024-07-12 09:06 pm S 5.1 8.0----30.07- 73.2 62.4 67.6---
2024-07-12 09:00 pm S 6.0 8.0----30.07+0.00 72.7 62.6 67.5---
2024-07-12 08:54 pm S 5.1 8.0----30.07- 72.9 62.6 67.8---
2024-07-12 08:48 pm S 6.0 8.0----30.07- 72.9 62.6 67.5---
2024-07-12 08:42 pm S 6.0 8.9----30.06- 73.0 62.6 67.3---
2024-07-12 08:36 pm S 7.0 8.9----30.06- 73.4 62.6 67.3---
2024-07-12 08:30 pm S 7.0 9.9----30.07- 73.6 62.6 67.3---
2024-07-12 08:24 pm S 7.0 9.9----30.07- 73.6 62.4 67.3---
2024-07-12 08:18 pm S 7.0 9.9----30.06- 73.2 62.4 67.1---
2024-07-12 08:12 pm S 7.0 11.1----30.06- 72.9 62.4 66.6---
2024-07-12 08:06 pm S 8.0 11.1----30.06- 72.9 62.4 66.4---
2024-07-12 08:00 pm S 6.0 8.9----30.06-0.01 72.9 62.4 66.6---
2024-07-12 07:54 pm S 8.0 11.1----30.06- 72.9 62.4 66.2---
2024-07-12 07:48 pm S 8.9 11.1----30.06- 72.7 62.4 66.0---
2024-07-12 07:42 pm S 8.9 12.0----30.06- 72.7 62.4 66.0---
2024-07-12 07:36 pm S 8.0 11.1----30.06- 73.2 62.4 66.6---
2024-07-12 07:30 pm S 8.0 11.1----30.06- 73.2 62.4 66.7---
2024-07-12 07:24 pm S 7.0 12.0----30.06- 73.4 62.4 66.9---
2024-07-12 07:18 pm S 8.0 11.1----30.06- 73.6 62.4 67.1---
2024-07-12 07:12 pm S 8.9 12.0----30.06- 73.2 62.4 66.9---
2024-07-12 07:06 pm S 8.9 12.0----30.06- 73.2 62.4 66.9---
2024-07-12 07:00 pm S 8.0 12.0----30.06-0.02 73.6 62.4 67.3---
2024-07-12 06:54 pm S 8.0 12.0----30.06- 73.4 62.4 66.7---
2024-07-12 06:48 pm S 8.0 11.1----30.06-- 62.4----
2024-07-12 06:42 pmSSE 5.1 8.9----30.06-- 62.6----
2024-07-12 06:36 pmSSE 5.1 8.9----30.06-- 62.6----
2024-07-12 06:30 pm SE 4.1 9.9----30.07- 73.0 62.4 66.7---
2024-07-12 06:24 pmESE 5.1 7.0----30.07- 73.2 62.4 66.6---
2024-07-12 06:18 pm SE 4.1 7.0----30.07-- 62.4----
2024-07-12 06:12 pm SE 4.1 8.0----30.07-- 62.4----
2024-07-12 06:06 pm SE 5.1 7.0----30.07-- 62.4----
2024-07-12 06:00 pm SE 2.9 7.0----30.07-0.01 73.8 62.6 67.1---
2024-07-12 05:54 pm SE 5.1 8.0----30.07- 73.2 62.6 66.7---
2024-07-12 05:48 pm SE 6.0 8.0----30.07- 73.2 62.6 66.6---
2024-07-12 05:42 pm SE 4.1 8.9----30.07- 73.8 62.6 67.1---
2024-07-12 05:36 pmSSE 4.1 8.0----30.07- 73.2 62.4 66.9---
2024-07-12 05:30 pmSSE 5.1 8.9----30.07- 72.7 62.4 66.9---
2024-07-12 05:24 pmSSE 6.0 9.9----30.07- 72.1 62.4 66.9---
2024-07-12 05:18 pm SE 7.0 8.0----30.07- 72.1 62.4 66.4---
2024-07-12 05:12 pmESE 1.9 5.1----30.07- 73.0 62.4 67.1---
2024-07-12 05:06 pm NE 1.9 6.0----30.08- 73.0 62.4 67.3---
2024-07-12 05:00 pm E 2.9 6.0----30.07-0.02 72.9 62.4 67.3---
2024-07-12 04:54 pmSSE 5.1 9.9----30.07- 73.2 62.4 67.8---
2024-07-12 04:48 pm S 6.0 8.9----30.07- 72.9 62.4 67.8---
2024-07-12 04:42 pmSSE 6.0 11.1----30.07- 72.7 62.4 67.8---
2024-07-12 04:36 pmSSE 5.1 8.9----30.07- 72.7 62.4 67.8---
2024-07-12 04:30 pmSSE 5.1 8.9----30.07- 72.5 62.4 67.5---
2024-07-12 04:24 pmSSE 5.1 12.0----30.07- 72.7 62.4 67.5---
2024-07-12 04:18 pmSSE 6.0 9.9----30.07- 73.6 62.4 68.0---
2024-07-12 04:12 pmSSE 7.0 11.1----30.07- 74.3 62.4 68.4---
2024-07-12 04:06 pmSSE 8.0 12.0----30.08- 74.8 62.4 68.4---
2024-07-12 04:00 pm S 8.9 12.0----30.07-0.02 75.2 62.4 68.9---
2024-07-12 03:54 pm S 8.0 12.0----30.08- 75.6 62.4 69.1---
2024-07-12 03:48 pm S 8.0 12.0----30.08- 75.6 62.4 69.1---
2024-07-12 03:42 pm S 8.9 13.0----30.08- 75.2 62.4 68.2---
2024-07-12 03:36 pm S 9.9 14.0----30.08- 74.7 62.2 68.0---
2024-07-12 03:30 pm S 9.9 15.0----30.08- 75.0 62.2 68.4---
2024-07-12 03:24 pm S 12.0 15.9----30.08- 74.8 62.2 67.8---
2024-07-12 03:18 pm S 12.0 15.9----30.08- 74.5 62.2 68.0---
2024-07-12 03:12 pmSSE 9.9 13.0----30.08- 74.7 62.2 68.2---
2024-07-12 03:06 pmSSE 11.1 14.0----30.08- 75.0 62.2 67.6---
2024-07-12 03:00 pm S 8.0 12.0----30.09-0.01 76.3 62.2 69.1---
2024-07-12 02:54 pm S 9.9 12.0----30.09- 76.1 62.4 68.4---
2024-07-12 02:48 pm S 7.0 9.9----30.09- 75.7 62.2 68.9---
2024-07-12 02:42 pm S 8.0 13.0----30.09- 74.7 62.2 68.7---
2024-07-12 02:36 pm S 8.9 12.0----30.09- 74.5 62.4 68.0---
2024-07-12 02:30 pm S 8.9 13.0----30.09- 74.1 62.2 68.0---
2024-07-12 02:24 pm S 9.9 12.0----30.09- 73.9 62.2 67.5---
2024-07-12 02:18 pm S 8.0 12.0----30.09- 74.1 62.1 67.8---
2024-07-12 02:12 pm S 9.9 12.0----30.09- 73.4 62.2 67.5---
2024-07-12 02:06 pm S 11.1 14.0----30.10- 72.5 62.2 66.7---
2024-07-12 02:00 pm S 9.9 15.0----30.10+0.00 73.0 62.1 67.1---
2024-07-12 01:54 pm S 11.1 15.0----30.09- 73.4 62.2 67.1---
2024-07-12 01:48 pm S 12.0 15.0----30.09- 73.2 62.1 67.3---
2024-07-12 01:42 pm S 8.9 12.0----30.09- 73.8 62.1 67.6---
2024-07-12 01:36 pm S 8.9 12.0----30.09- 74.1 62.1 67.6---
2024-07-12 01:30 pmSSE 8.0 11.1----30.09- 74.7 62.1 68.5---
2024-07-12 01:24 pm S 8.9 12.0----30.09- 73.4 62.1 68.2---
2024-07-12 01:18 pm S 8.9 13.0----30.09- 72.3 62.1 67.6---
2024-07-12 01:12 pm S 9.9 13.0----30.09- 72.1 62.1 67.6---
2024-07-12 01:06 pm S 9.9 13.0----30.09- 71.8 62.1 67.3---
2024-07-12 01:00 pm S 8.9 12.0----30.09+0.00 71.8 62.1 67.1---
2024-07-12 12:54 pm S 7.0 11.1----30.09- 72.7 62.1 67.3---
2024-07-12 12:48 pm S 6.0 12.0----30.09- 73.2 62.1 67.8---
2024-07-12 12:42 pmSSE 8.0 12.0----30.09- 73.0 62.2 67.6---
2024-07-12 12:36 pm S 8.9 11.1----30.10- 72.7 62.1 67.5---
2024-07-12 12:30 pmSSE 7.0 11.1----30.10- 72.5 62.1 67.3---
2024-07-12 12:24 pmSSE 7.0 11.1----30.10- 72.0 62.1 66.9---
2024-07-12 12:18 pmSSE 7.0 9.9----30.10- 72.3 62.1 66.7---
2024-07-12 12:12 pmSSE 7.0 11.1----30.10- 72.3 62.1 66.7---
2024-07-12 12:06 pmSSE 5.1 8.9----30.10- 72.5 62.1 66.7---
2024-07-12 11:54 amSSE 6.0 11.1----30.10- 72.1 62.1 65.8---
2024-07-12 11:48 amSSE 5.1 8.9----30.10- 72.5 62.1 66.0---
2024-07-12 11:42 amSSE 7.0 8.9----30.10- 72.3 62.1 65.5---
2024-07-12 11:36 amSSE 7.0 8.9----30.10- 72.9 62.1 65.7---
2024-07-12 11:30 am S 6.0 8.9----30.10- 72.1 62.1 66.2---
2024-07-12 11:24 amSSE 7.0 8.9----30.10- 71.2 62.1 65.3---
2024-07-12 11:18 am S 6.0 8.9----30.10- 72.0 62.1 66.0---
2024-07-12 11:12 amSSE 6.0 8.9----30.10- 72.5 62.1 66.0---
2024-07-12 11:06 amSSE 7.0 8.9----30.10- 73.0 62.1 66.2---
2024-07-12 11:00 amSSE 5.1 8.0----30.10+0.00 73.0 62.1 66.0---
2024-07-12 10:54 amSSE 5.1 7.0----30.10- 72.7 62.1 65.5---
2024-07-12 10:48 amSSE 5.1 7.0----30.10- 72.0 62.1 65.1---
2024-07-12 10:42 amSSE 4.1 6.0----30.10- 71.8 62.1 65.1---
2024-07-12 10:36 amSSE 6.0 7.0----30.10- 71.6 62.1 64.8---
2024-07-12 10:30 amSSE 6.0 8.0----30.09- 71.6 62.1 64.8---
2024-07-12 10:24 amSSE 6.0 8.0----30.09- 72.1 62.1 64.9---
2024-07-12 10:18 am S 6.0 8.0----30.09- 72.3 62.1 64.9---
2024-07-12 10:12 amSSE 5.1 8.0----30.09- 73.0 62.1 64.9---
2024-07-12 10:06 amSSE 4.1 5.1----30.09- 75.7 62.1 63.9---
2024-07-12 10:00 am W 1.9 5.1----30.09+0.00 75.0 62.1 61.7---
2024-07-12 09:54 am W 1.9 5.1----30.10- 74.7 62.1 61.3---
2024-07-12 09:48 amWSW 2.9 6.0----30.10- 74.3 62.1 60.8---
2024-07-12 09:42 am NW 1.9 5.1----30.10- 74.7 62.1 61.5---
2024-07-12 09:36 amWNW 2.9 6.0----30.10- 73.8 62.1 61.0---
2024-07-12 09:30 am W 4.1 5.1----30.10- 73.6 62.1 61.0---
2024-07-12 09:24 amWNW 4.1 8.0----30.10- 73.2 62.1 61.0---
2024-07-12 09:18 amWNW 4.1 6.0----30.10- 73.0 62.1 61.0---
2024-07-12 09:12 amWNW 5.1 6.0----30.10- 72.9 62.1 61.3---
2024-07-12 09:06 am NW 2.9 4.1----30.10- 73.0 62.1 61.9---
2024-07-12 09:00 amWSW 1.0 5.1----30.10+0.01 72.0 62.1 61.3---
2024-07-12 08:54 am W 2.9 5.1----30.10- 71.2 62.1 61.3---
2024-07-12 08:48 am W 4.1 5.1----30.10- 70.7 62.2 61.7---
2024-07-12 08:42 am W 4.1 6.0----30.10- 70.2 62.2 61.7---
2024-07-12 08:36 amWNW 4.1 6.0----30.10- 69.4 62.2 61.3---
2024-07-12 08:30 am W 4.1 6.0----30.10- 69.1 62.2 61.3---
2024-07-12 08:24 amWNW 1.9 5.1----30.10- 68.4 62.2 61.2---
2024-07-12 08:18 am W 1.9 2.9----30.10- 68.0 62.2 60.8---
2024-07-12 08:12 amWSW 1.9 4.1----30.10- 67.5 62.2 60.1---
2024-07-12 08:06 am W 1.9 4.1----30.10- 67.1 62.1 59.7---
2024-07-12 08:00 am W 1.9 4.1----30.10+0.03 66.9 62.1 59.4---
2024-07-12 07:54 amWNW 1.9 4.1----30.10- 66.9 62.1 59.4---
2024-07-12 07:48 am W 1.9 5.1----30.10-- 62.1----
2024-07-12 07:42 amWNW 4.1 5.1----30.10-- 62.1----
2024-07-12 07:36 amWNW 1.9 5.1----30.10-- 62.1----
2024-07-12 07:30 amWNW 2.9 4.1----30.10- 66.7 62.2 59.2---
2024-07-12 07:24 amWNW 1.9 4.1----30.10- 66.7 62.1 59.4---
2024-07-12 07:18 am NW 1.9 2.9----30.10- 66.6 62.2 59.4---
2024-07-12 07:12 am NW 1.9 2.9----30.10- 66.6 62.2 59.2---
2024-07-12 07:06 am- 0.0 1.9----30.10- 66.4 62.2 59.0---
2024-07-12 07:00 amWSW 1.0 1.9----30.10+0.03 66.2 62.2 58.8---
2024-07-12 06:54 amWSW 1.0 1.9----30.09- 66.2 62.1 59.0---
2024-07-12 06:48 am W 1.9 2.9----30.09- 66.4 62.2 59.4---
2024-07-12 06:42 am- 0.0 1.0----30.09- 66.2 62.1 59.2---
2024-07-12 06:36 am- 0.0 1.0----30.09- 66.0 62.2 59.5---
2024-07-12 06:30 am- 0.0 1.0----30.09- 65.8 62.2 59.9---
2024-07-12 06:24 am NW 1.0 1.9----30.09- 65.7 62.2 59.9---
2024-07-12 06:18 am NW 1.9 1.9----30.09- 65.7 62.2 60.1---
2024-07-12 06:12 am NW 1.9 1.9----30.09- 65.8 62.2 60.4---
2024-07-12 06:06 am W 1.0 1.9----30.09- 66.2 62.2 60.8---
2024-07-12 06:00 amWNW 1.0 1.9----30.09+0.03 66.0 62.2 60.8---
2024-07-12 05:54 am- 0.0 1.0----30.09- 65.5 62.2 59.9---
2024-07-12 05:48 am- 0.0 1.0----30.09- 65.7 62.2 59.9---
2024-07-12 05:42 am N 1.0 1.0----30.08- 65.3 62.2 59.7---
2024-07-12 05:36 am- 0.0 1.0----30.08- 64.9 62.2 59.4---
2024-07-12 05:30 am- 0.0 1.0----30.08- 64.9 62.2 59.4---
2024-07-12 05:24 am- 0.0 1.0----30.08- 64.8 62.2 59.2---
2024-07-12 05:18 am- 0.0 0.0----30.08- 64.6 62.2 59.0---
2024-07-12 05:12 am- 0.0 1.0----30.08- 64.4 62.2 59.0---
2024-07-12 05:06 am- 0.0 1.0----30.07- 64.4 62.2 58.8---
2024-07-12 05:00 am- 0.0 1.0----30.07+0.00 64.8 62.2 58.8---
2024-07-12 04:54 am- 0.0 1.0----30.07- 65.3 62.2 58.6---
2024-07-12 04:48 am- 0.0 1.0----30.07- 65.7 62.2 58.6---
2024-07-12 04:42 am- 0.0 1.9----30.07- 66.0 62.2 58.8---
2024-07-12 04:36 am W 1.0 1.9----30.06- 65.8 62.2 58.6---
2024-07-12 04:30 am SW 1.0 1.9----30.06- 66.0 62.2 58.8---
2024-07-12 04:24 amWSW 1.0 2.9----30.06- 66.0 62.2 59.0---
2024-07-12 04:18 am W 1.9 1.9----30.06- 66.0 62.4 59.5---
2024-07-12 04:12 am W 1.0 1.9----30.06- 65.8 62.2 59.4---
2024-07-12 04:06 amSSW 1.9 1.9----30.06- 65.8 62.2 59.4---
2024-07-12 04:00 am W 1.0 1.9----30.06+0.00 65.8 62.2 59.4---
2024-07-12 03:54 amWNW 1.0 1.9----30.06- 65.5 62.2 59.4---